CZ-2D DEB, 35271

Orbit data source: Space-Track

CZ-2D DEB, 35271 is space debris in SSO originally from a launch on Tue, 05 Jul 2005 UTC launched from the Jiuquan Satellite Launch Center, China (JSC). Debris objects in space refer to the collection of defunct objects orbiting the Earth. Examples of debris include non-operational satellites, rocket bodies, and fragments generated from explosions, collisions, or faulty payload assembly.

Loading next visibility...
Identifier
35271, 2005-024K
Orbit
SSO
Last TLE update
20 hours ago
Origin
Manufacturer
Unknown
Mission
Spacecraft
Bus & Motor
Unknown
Mass
Unknown
Launch date (UTC)
2005-07-05 (20 years ago)
Launch vehicle
Unknown
Launch site
Jiuquan Satellite Launch Center, China (JSC)
Object type
Payload
Rocket body
Debris
Shape & HBR
Unknown
Radar Cross Section
Small (<0.1 m²)

Expand to show TLE details & history

TLE from 20 hours ago
0 CZ-2D DEB
1 35271U 05024K   25183.31024515  .00015327  00000-0  27501-3 0  9995
2 35271  97.2101 208.7665 0006218  30.3567 329.8044 15.49978532 50003
Epoch: 2025-07-02T07:26Z
TLE epoch observation values (Epoch: 2025-07-02T07:26:45.18Z)
Latitude
-0.00004°
Longitude
176.48507°
Altitude
416.273 km
Speed
7.663 km/s
True Right ascension
13h 55m 03s
True Declination
0° 00' 00"
Sunlit
Object was in daylight at epoch
Visualization orbit readout
Latitude
15.51108°
Longitude
175.32652°
Altitude
415.008 km
Speed
7.666 km/s
Apparent Right ascension
10h 56m 10s
Apparent Declination
-38° 36' 23"
Sunlit
Object is in daylight
Visualization observer readout
Local Sidereal Time
15:24:31
Azimuth
226.891° WSW
Elevation
-9.616°
Doppler factor
1
Orbital elements
Apogee altitude
417.93 km
Perigee altitude
409.483 km
Semi-major axis
6,791.843 km
Eccentricity
0.00062
Inclination
97.2101°
RAAN
208.7665°
Arg. of periapsis
30.3567°
True anomaly
Unknown
Mean anomaly
329.8044°
Eccentric anomaly
Unknown
Mean motion
3.87759 °/min
Orbital period
92.84 mins
BSTAR
0.00027501
Loading maneuver chart data...
Loading SW <> Apogee altitude chart data...
Loading historical data...
Loading historical data...
Loading historical data...
Loading historical data...
Loading historical data...
Loading historical data...
Loading historical data...

CZ-2D DEB Visibility forecast

Observer location: undefined°, undefined°

Span
Click to sort rows by Start time (UTC) header in descending order
Start Az.
Max El. time (UTC)
Max El. Az.
Max El.
End time (UTC)
End Az.
5 mins2025-07-03 14:59:18.256Z350.568° N2025-07-03 15:01:18.256Z307.714° NW29.277°2025-07-03 15:04:18.256Z220.91° SW
4 mins2025-07-04 01:26:18.256Z120.866° SE2025-07-04 01:27:18.256Z79.707° E32.347°2025-07-04 01:30:18.256Z4.276° NNE
|